Forside
METAR-TAF:

METAR-TAF

Lufthavne :

Hargeysa, Somalia

Breddekreds: 09-30N, længdekreds: 044-05E, højde: 1326 m

Aktuelle vejr

Denne rapport blev lavet for 1 time og 12 minutter siden, kl. 10:00 UTC
Vind 8 kt fra syd
Temperatur 27°C
Fugtighed 37%
Tryk 1018 hPa
Sigt 10 km eller mere
Nogle få skyer i en højde af 3000 ft

METAR: HCMH 141000Z 18008KT 9999 FEW030 27/11 Q1018

Tid: 14:12 (11:12 UTC)


TAF: fraværende

Vejrobservationer og prognoser fra mere end 4000 lufthavne (METAR og TAF).

De gule og røde prikker repræsenterer de meteorologiske stationer.

Flyt musen over at se navnet på stationen.

Så klik over at se vejr observationer og prognoser.

At skifte det kort: Klik på de grønne knapper med et sort kors for at zoome ind; på den grønne knap med en bindestreg for at zoome ud; eller på de grønne pile for tilstødende kort.


METAR-TAF: